Location: İstanbul
(41.0082°N, 28.9784°E)
Time: 03:27:35
(UTC+02:00)

Oscar 11 - Pass Details

Date: 18 October 2021
Orbit: 614 x 623 km, 97.6° (Epoch: 01 December)

Event Time Altitude Azimuth Distance (km) Brightness Sun altitude
Rises 05:56:03 0° 22° (NNE) 2,900 10.8 -16.3°
Reaches altitude 10° 05:58:27 10° 33° (NNE) 1,991 10.1 -15.9°
Maximum altitude 06:02:18 31° 96° (E) 1,091 9.1 -15.2°
Drops below altitude 10° 06:06:09 10° 159° (SSE) 1,983 9.9 -14.4°
Sets 06:08:32 0° 170° (S) 2,885 10.6 -14.0°
